Date,TemperatureHighF,TemperatureAvgF,TemperatureLowF,DewpointHighF,DewpointAvgF,DewpointLowF,HumidityHigh,HumidityAvg,HumidityLow,PressureMaxIn,PressureMinIn,WindSpeedMaxMPH,WindSpeedAvgMPH,GustSpeedMaxMPH,PrecipitationSumIn
2013-3-1,63.0,60.3,56.0,58.0,51.3,46.0,91,73,57,0.00,40.00,9,6,19,0.00
2013-3-2,63.0,56.6,49.0,49.0,42.2,34.0,78,60,37,0.00,40.00,21,9,30,0.00
2013-3-3,61.0,52.7,46.0,47.0,41.0,36.0,88,67,44,0.00,40.00,16,8,23,0.00
2013-3-4,68.0,53.6,41.0,49.0,37.2,30.0,88,58,26,0.00,40.00,13,6,21,0.00
2013-3-5,79.0,62.5,50.0,56.0,51.7,47.0,97,73,33,0.00,40.00,9,4,17,0.00
2013-3-6,77.0,62.5,49.0,61.0,49.6,28.0,99,69,26,0.00,40.00,19,10,30,0.00
2013-3-7,70.0,56.2,44.0,55.0,42.6,35.0,98,63,35,0.00,40.00,11,6,17,0.00
2013-3-8,76.0,61.4,48.0,55.0,47.1,36.0,99,68,23,0.00,40.00,10,6,15,0.00
2013-3-9,75.0,62.6,50.0,59.0,53.2,49.0,98,75,43,0.00,40.00,12,6,19,0.00
2013-3-10,76.0,67.4,57.0,60.0,56.1,52.0,96,70,44,0.00,40.00,14,7,24,0.00
2013-3-11,78.0,69.1,62.0,62.0,59.5,55.0,96,74,45,0.00,40.00,13,8,19,0.00
2013-3-12,80.0,70.2,61.0,67.0,63.8,60.0,98,81,59,0.00,40.00,16,7,25,0.00
2013-3-13,75.0,64.1,54.0,65.0,53.3,42.0,97,72,34,0.00,40.00,12,8,22,0.00
2013-3-14,72.0,59.0,50.0,56.0,44.4,34.0,94,64,27,0.00,40.00,12,8,20,0.00
2013-3-15,73.0,59.2,47.0,56.0,47.7,42.0,96,70,33,0.00,40.00,10,6,21,0.00
2013-3-16,77.0,63.5,50.0,60.0,52.6,48.0,100,73,36,0.00,40.00,10,4,17,0.00
2013-3-17,77.0,66.2,56.0,62.0,57.1,55.0,99,76,49,0.00,40.00,12,6,21,0.00
2013-3-18,80.0,69.1,61.0,69.0,64.1,60.0,100,86,59,0.00,40.00,13,7,21,1.78
2013-3-19,79.0,71.4,66.0,69.0,66.7,65.0,100,87,64,0.00,40.00,13,4,29,1.72
2013-3-20,83.0,71.5,62.0,71.0,64.3,57.0,100,81,51,0.00,40.00,15,5,26,0.01
2013-3-21,72.0,65.3,59.0,63.0,52.2,36.0,99,69,27,0.00,40.00,11,7,20,0.01
2013-3-22,76.0,67.5,58.0,69.0,60.9,58.0,100,81,55,0.00,40.00,12,6,21,0.03
2013-3-23,89.0,77.3,70.0,74.0,68.6,64.0,100,78,44,0.00,40.00,13,6,23,0.05
2013-3-24,88.0,78.0,71.0,74.0,70.6,67.0,100,80,52,0.00,40.00,20,11,34,0.17
2013-3-25,76.0,71.0,59.0,73.0,59.8,44.0,100,72,37,0.00,40.00,14,8,23,0.17
2013-3-26,65.0,58.3,48.0,46.0,39.2,32.0,69,51,34,0.00,40.00,19,13,34,0.00
2013-3-27,66.0,53.9,44.0,41.0,36.4,32.0,85,55,29,0.00,40.00,13,9,22,0.00
2013-3-28,73.0,66.4,56.0,50.0,43.4,36.0,78,47,26,0.00,40.00,11,5,20,0.00
2013-3-29,76.0,62.5,50.0,57.0,49.8,46.0,97,68,36,0.00,40.00,10,6,18,0.00
2013-3-30,76.0,65.6,55.0,59.0,53.1,47.0,98,69,37,0.00,40.00,10,6,17,0.00
2013-3-31,81.0,68.7,57.0,66.0,59.1,-99.9,100,78,49,0.00,40.00,12,7,23,0.00